This is the latest recevied weather packets stored in our database for station/object KE2HEH. If no packets are shown the sender has not sent any weather packets the latest 10 day(s).
| Time | Temp. | Humidity | Pressure | Rain* | Wind** | Luminosity | Snow |
|---|---|---|---|---|---|---|---|
| 1778248159 | 11.67° C | 78% | 1013.9 hPa | 0 mm | - | 613 W/m² | - |
| 1778247855 | 11.67° C | 78% | 1013.8 hPa | 0 mm | - | 603 W/m² | - |
| 1778247552 | 11.67° C | 77% | 1013.7 hPa | 0 mm | - | 587 W/m² | - |
| 1778247250 | 11.67° C | 76% | 1013.8 hPa | 0 mm | - | 573 W/m² | - |
| 1778246947 | 11.67° C | 76% | 1013.6 hPa | 0 mm | - | 569 W/m² | - |
| 1778246645 | 12.22° C | 74% | 1013.7 hPa | 0 mm | - | 564 W/m² | - |
| 1778246341 | 12.22° C | 67% | 1013.7 hPa | 0 mm | - | 555 W/m² | - |
| 1778246036 | 11.67° C | 68% | 1013.7 hPa | 0 mm | - | 548 W/m² | - |
| 1778245734 | 12.78° C | 67% | 1013.7 hPa | 0 mm | - | 523 W/m² | - |
| 1778245430 | 12.78° C | 56% | 1013.7 hPa | 0 mm | - | 511 W/m² | - |
| 1778245126 | 12.78° C | 58% | 1013.4 hPa | 0 mm | - | 504 W/m² | - |
| 1778244822 | 12.22° C | 60% | 1013.7 hPa | 0 mm | - | 491 W/m² | - |
| 1778244521 | 12.22° C | 67% | 1013.6 hPa | 0 mm | - | 473 W/m² | - |
| 1778244217 | 11.11° C | 65% | 1013.7 hPa | 0 mm | - | 465 W/m² | - |
| 1778243916 | 11.11° C | 78% | 1013.9 hPa | 0 mm | - | 448 W/m² | - |
| 1778243614 | 11.11° C | 76% | 1014 hPa | 0 mm | - | 426 W/m² | - |
| 1778243310 | 11.67° C | 72% | 1014.1 hPa | 0 mm | - | 417 W/m² | - |
| 1778243007 | 11.67° C | 69% | 1014.1 hPa | 0 mm | - | 382 W/m² | - |
| 1778242704 | 11.11° C | 73% | 1014 hPa | 0 mm | - | 363 W/m² | - |
| 1778242403 | 11.67° C | 72% | 1014 hPa | 0 mm | - | 349 W/m² | - |
| 1778242100 | 11.67° C | 67% | 1014 hPa | 0 mm | - | 331 W/m² | - |
| 1778241798 | 11.67° C | 68% | 1013.9 hPa | 0 mm | - | 319 W/m² | - |
| 1778241495 | 11.67° C | 67% | 1013.8 hPa | 0 mm | - | 313 W/m² | - |
| 1778241192 | 11.11° C | 68% | 1013.7 hPa | 0 mm | - | 312 W/m² | - |
| 1778240889 | 11.11° C | 69% | 1013.9 hPa | 0 mm | - | 291 W/m² | - |
* Rain latest hour (hover to see other rain measurements)
** Current wind speed in m/s (hover to see current wind gust speed)